RH
4 4 3 4 8 23 56 84 88 74 64 74 74 68 66 95 92 48 100 99 100 84 100 99 100 82 79 73 64 74 84 95 88 92 81 77 63 46 42 46 34 42 62 76
70 23 7 3 4 13 64 79 80 84 97 99 72 97 69 76 86 98 99 98 97 94 83 100 100 85 71 53 50 56 87 86 76 78 59 40 42 48 51 45 34 35 36 27
85 60 22 10 7 7 60 73 82 76 92 100 85 72 83 84 98 90 99 90 100 99 100 94 97 97 79 78 74 65 55 54 61 61 55 44 36 43 43 40 38 39 33 29
100 96 91 30 12 11 46 64 70 83 97 98 80 96 97 100 87 100 100 86 78 90 100 100 97 100 96 99 96 86 81 71 60 53 59 58 51 44 53 68 85 96 77 98
95 87 88 73 30 71 57 43 46 51 53 68 76 87 100 99 100 100 98 82 79 100 85 97 99 96 100 100 91 83 70 72 76 81 84 82 66 55 56 85 82 94 80 52
100 100 100 100 100 100 100 100 93 84 88 95 80 94 89 93 91 100 100 100 100 100 100 100 100 100 99 99 100 100 96 90 100 99 95 100 81 61 98 100 91 65 46 32
100 100 100 100 100 100 100 100 100 100 100 100 100 100 100 100 100 100 100 100 98 98 100 100 100 100 100 100 100 100 100 100 100 100 100 99 59 66 89 86 64 76 78 75
100 100 100 100 100 100 100 100 100 100 95 99 100 100 100 100 99 98 100 100 100 100 96 99 99 99 100 100 98 94 94 88 86 92 82 75 54 55 75 85 78 75 74 77
100 100 100 100 100 100 100 100 100 100 100 100 100 100 100 100 100 100 100 86 86 95 100 98 95 88 86 98 86 86 87 86 80 83 98 83 44 54 75 84 64 63 59 61
81 90 96 99 99 100 100 100 99 98 100 97 99 94 96 93 94 96 100 91 82 89 99 100 100 100 100 100 97 92 93 91 85 95 98 78 48 51 93 99 62 64 58 60
19 34 36 52 74 84 94 91 94 90 80 69 69 69 67 54 70 67 65 59 83 92 100 100 100 100 98 100 99 100 100 98 87 99 100 73 52 84 94 90 74 68 62 59
12 13 14 14 14 15 15 15 15 19 22 19 19 18 25 19 17 22 22 32 43 55 78 82 89 92 100 97 100 100 96 90 100 100 93 93 86 78 81 76 67 60 56 57
15 11 12 19 20 14 17 27 28 22 26 27 22 19 31 33 34 54 72 68 84 96 100 100 100 100 100 100 100 100 100 100 95 92 78 86 78 72 65 63 62 65 66 57
18 25 42 37 64 67 56 47 48 55 81 68 54 58 60 78 82 86 90 96 100 99 99 99 98 95 93 92 98 96 91 96 92 90 81 73 69 67 67 66 63 60 52 41
66 48 55 66 70 74 69 74 81 88 88 88 100 100 82 86 87 76 78 87 90 95 95 83 87 89 85 76 69 55 61 59 63 56 65 62 53 62 63 60 57 52 44 34
83 87 82 74 69 66 64 70 78 73 71 73 84 86 82 78 72 71 68 70 71 71 67 65 65 70 80 64 54 46 46 40 38 37 32 32 31 30 32 33 35 36 34 29
100 99 94 78 67 65 64 60 53 49 51 63 66 64 62 58 58 62 64 66 70 68 66 62 49 40 34 34 33 28 27 22 20 18 16 14 14 14 15 17 22 30 28 20
95 100 99 90 81 74 66 58 55 59 62 57 57 57 58 64 71 72 68 60 52 45 38 32 28 22 22 13 14 13 18 23 18 15 14 16 16 19 23 31 27 21 17 15
94 98 93 92 80 75 71 64 62 60 58 56 54 51 49 49 46 44 44 42 38 36 41 37 29 48 29 25 23 31 30 17 17 14 14 16 17 16 19 22 25 18 18 17
87 90 81 75 74 66 60 60 56 53 50 43 38 40 35 36 40 56 63 53 42 62 48 50 51 29 46 58 91 84 48 18 16 16 90 100 96 48 24 22 20 19 19 24
77 85 76 82 74 63 56 52 52 47 44 41 42 47 45 51 77 70 68 78 78 88 82 75 97 84 94 92 95 97 87 68 22 70 100 100 100 100 100 62 53 35 91 100
70 80 78 77 69 62 55 54 58 62 73 79 84 83 75 88 90 97 94 94 95 99 87 98 97 99 100 100 100 100 97 100 88 77 97 100 100 100 100 100 98 95 100 100
85 76 87 74 69 57 57 67 91 90 90 96 100 100 100 100 96 98 100 100 99 95 97 100 100 100 100 99 98 74 36 25 36 88 94 100 67 73 97 83 63 42 31 20
100 99 78 81 68 66 79 89 89 97 97 88 100 100 100 100 100 100 100 98 97 100 100 100 100 100 100 100 78 84 83 34 23 18 15 14 15 17 15 13 13 14 16 36
100 98 87 75 72 90 91 92 98 98 100 100 100 100 100 100 100 94 95 84 78 94 100 100 100 91 95 94 80 55 49 40 32 26 21 18 16 15 14 15 18 22 37 66
82 80 76 92 95 96 96 100 100 98 62 44 79 100 100 100 100 99 100 93 95 100 100 95 90 79 70 77 72 56 49 44 37 31 25 21 22 22 22 27 32 35 41 54
94 100 100 100 100 94 88 100 100 89 56 42 94 100 100 79 100 100 93 93 96 92 74 74 75 65 48 59 58 55 57 54 53 57 63 56 47 47 70 75 71 57 47 64
Wind_Speed
81 83 83 81 80 78 78 76 79 76 74 80 82 81 77 63 52 69 66 60 57 59 58 49 49 55 56 52 56 58 50 45 47 48 53 57 61 61 52 52 54 53 47 53
67 73 76 77 78 75 71 71 73 72 69 76 81 70 73 77 74 73 68 59 54 52 58 56 55 60 52 52 55 59 60 60 54 57 62 66 63 56 53 54 53 53 54 54
47 51 62 71 69 71 69 70 72 69 72 76 77 75 71 74 65 68 72 66 67 65 66 68 64 58 57 55 56 61 64 60 60 62 64 63 59 52 50 52 53 56 55 52
43 44 46 52 59 70 71 70 72 70 82 76 67 65 62 76 88 85 74 78 76 76 60 65 63 58 54 57 54 56 58 59 64 66 57 53 52 51 50 52 52 50 48 47
42 51 48 46 48 57 61 61 70 77 73 74 73 73 67 73 83 70 68 73 74 70 61 63 62 60 56 55 61 63 63 60 59 56 54 54 53 55 56 51 51 56 57 59
47 50 49 43 50 48 59 69 58 66 68 64 62 64 67 74 75 60 64 63 58 63 62 58 48 46 47 46 46 47 48 49 46 51 55 56 57 55 54 52 54 54 55 54
45 53 55 53 52 61 67 78 66 72 70 56 65 72 75 83 73 69 72 63 61 57 55 52 48 48 47 48 48 47 46 47 49 57 58 56 60 57 59 59 51 48 48 48
41 49 53 59 63 68 66 61 66 66 61 67 76 75 67 63 65 63 56 56 50 45 46 51 49 47 47 48 50 55 52 49 51 59 64 63 52 58 61 58 56 55 52 50
23 40 35 45 47 56 57 51 51 58 57 66 64 54 57 59 48 48 52 51 40 36 41 44 41 44 46 51 51 48 48 49 51 54 59 56 42 51 58 59 54 51 50 49
11 11 19 27 41 35 33 35 30 20 29 41 39 33 31 39 37 29 31 34 38 44 45 44 49 52 53 53 52 51 50 49 51 55 55 56 48 53 58 57 49 51 48 47
15 18 19 19 21 23 25 27 29 28 26 28 31 30 30 32 37 38 39 36 43 54 57 55 55 55 57 60 58 54 51 51 51 52 58 58 50 52 59 56 55 54 55 50
19 20 22 20 22 24 25 29 30 29 31 30 28 27 28 30 31 35 39 44 49 55 60 61 60 60 62 60 53 52 54 55 53 56 57 55 55 58 61 61 59 52 50 48
16 16 19 17 18 20 21 20 20 23 24 25 25 28 27 30 33 36 41 47 54 58 60 57 57 60 60 57 56 55 55 54 55 57 58 59 62 64 64 61 57 53 48 45
20 16 15 17 12 11 12 13 13 14 11 11 15 19 21 26 27 32 35 40 44 46 45 44 46 48 50 51 49 50 54 59 59 58 58 57 55 54 55 56 54 50 47 43
20 19 16 16 14 12 14 15 14 14 14 13 16 18 23 26 26 29 30 30 33 34 34 36 36 37 38 41 44 42 39 43 49 51 52 53 50 52 53 53 51 50 49 47
17 18 19 15 15 16 16 13 13 15 17 17 15 15 18 20 21 22 24 24 26 27 28 29 31 33 35 37 37 30 37 41 45 47 51 54 52 53 53 54 53 51 47 41
16 19 21 21 22 23 22 21 22 24 24 22 21 21 22 23 24 24 25 24 23 25 25 25 25 27 31 32 31 23 36 44 48 52 54 53 54 57 60 60 57 46 37 34
15 17 18 19 19 19 19 20 20 20 21 23 22 22 22 21 20 20 20 20 21 21 21 22 24 28 31 33 31 33 34 34 29 26 29 25 28 38 48 50 47 41 32 32
15 16 16 16 16 15 15 15 15 15 16 17 17 19 19 18 17 17 18 18 18 16 15 19 21 21 26 25 21 22 27 25 21 19 17 14 11 9 9 14 22 24 21 24
16 17 14 13 11 11 10 9 10 11 12 13 12 10 12 15 17 17 15 13 12 10 12 12 11 11 6 7 9 7 8 8 10 10 9 5 4 1 3 7 12 14 16 17
16 15 10 10 6 6 6 7 9 10 10 7 7 11 11 14 15 12 10 9 8 9 8 7 7 5 5 8 9 3 6 7 10 13 9 7 6 2 6 6 7 9 7 7
15 11 8 6 4 5 6 10 12 13 9 8 7 10 11 13 13 11 8 7 8 9 9 7 4 3 2 5 5 10 12 6 8 7 7 2 7 4 5 8 6 5 8 10
17 14 11 7 4 4 8 13 14 9 9 8 7 10 12 11 9 8 8 8 10 9 9 11 8 6 0 2 4 6 6 6 5 4 5 3 1 1 2 2 4 8 10 8
26 23 17 12 9 9 14 14 12 12 11 9 11 12 12 10 6 4 9 8 11 10 14 8 4 2 3 1 3 4 6 9 6 4 4 4 4 4 6 8 10 12 14 13
26 24 20 14 11 16 14 12 13 12 10 8 11 13 12 12 10 10 9 11 12 11 5 3 1 5 7 7 8 9 11 12 12 13 13 12 12 12 12 10 9 13 14 12
21 20 16 20 17 16 15 14 16 12 7 7 10 13 12 11 9 9 10 9 11 7 5 3 5 7 8 8 8 9 12 14 16 17 16 14 13 12 12 13 14 15 16 14
20 23 21 21 17 16 15 17 16 14 8 7 9 11 11 9 9 9 8 5 2 2 4 4 5 9 11 11 10 10 10 11 11 11 10 10 12 14 14 13 13 13 14 14
Wind_Direction
225 223 222 221 222 221 222 223 225 224 226 228 230 229 227 228 229 231 235 235 243 244 245 242 244 247 248 252 258 261 259 255 262 262 264 268 276 279 276 274 281 281 272 267
210 221 224 223 220 222 219 220 224 225 225 225 230 223 235 235 246 238 235 243 247 238 243 262 265 263 260 258 259 256 250 262 265 264 267 271 274 276 278 279 279 273 266 272
208 216 221 223 222 219 218 221 222 222 229 224 228 231 236 228 229 228 237 239 234 250 258 267 267 261 262 256 250 248 256 257 259 264 271 274 275 278 274 270 269 269 270 269
187 191 201 214 215 217 216 218 220 222 220 229 235 227 232 233 236 242 243 248 253 256 259 235 250 260 248 247 244 247 255 265 270 273 275 272 270 272 269 262 263 263 266 262
191 194 195 198 208 199 219 221 223 223 228 230 231 231 231 236 242 248 251 253 252 249 245 241 242 238 242 250 259 264 264 266 266 269 266 264 266 270 268 264 263 263 262 261
194 191 190 196 199 201 212 217 220 219 226 222 228 229 232 234 240 240 235 230 230 231 227 229 241 249 251 254 258 259 260 264 259 261 261 257 264 268 267 268 269 265 263 265
183 188 193 205 204 198 207 207 213 209 211 223 217 226 235 234 227 216 223 226 231 227 231 235 232 241 246 247 250 252 251 258 253 250 248 250 265 265 264 270 267 265 269 271
195 180 190 201 195 196 204 203 211 210 214 219 212 212 218 219 217 218 221 222 229 240 246 249 247 248 248 248 247 240 244 246 251 251 254 257 269 267 266 265 266 269 272 276
200 200 195 200 187 195 196 198 200 202 208 214 212 209 214 218 224 230 232 237 257 253 240 244 246 252 253 253 250 248 255 260 259 259 257 259 273 263 264 265 264 274 282 280
219 222 223 225 219 220 214 220 230 242 230 223 232 246 253 242 249 253 250 253 256 249 242 238 242 245 249 247 245 253 260 263 263 259 254 255 269 260 262 268 278 278 283 282
230 228 232 238 245 250 254 253 261 265 264 263 265 266 267 265 265 259 258 251 248 242 236 239 247 247 247 247 253 258 254 252 253 254 257 260 261 258 258 268 272 280 281 279
247 249 252 249 248 252 254 253 259 260 258 262 263 260 255 254 247 239 243 240 243 242 246 252 255 257 256 257 257 251 250 256 253 250 251 253 251 252 261 272 278 277 275 276
235 249 261 258 260 265 264 250 244 249 243 247 257 260 255 253 251 247 242 239 237 239 242 246 249 251 252 254 250 245 249 251 257 258 257 260 261 264 270 273 273 273 266 263
231 231 232 244 227 217 229 249 260 257 230 228 239 234 239 241 240 241 240 236 238 239 240 241 246 250 252 254 257 255 254 258 263 267 270 270 269 268 267 267 266 264 260 261
212 218 229 226 224 216 211 189 183 192 212 202 192 195 211 217 222 223 223 225 228 232 238 243 248 252 254 254 257 262 267 264 262 262 262 262 262 259 258 257 258 258 260 261
205 207 206 203 210 215 213 201 201 202 215 220 225 225 223 230 236 241 245 245 243 244 248 249 250 251 253 257 264 269 260 261 263 265 264 264 264 260 260 261 260 259 262 267
186 192 195 197 206 208 210 212 215 217 221 220 221 227 231 234 238 240 242 245 245 244 242 244 252 258 260 259 262 257 260 261 264 268 271 274 274 269 264 261 258 256 258 258
175 178 183 190 196 201 206 209 210 212 211 214 216 218 223 226 225 226 229 236 242 248 255 258 262 265 270 272 273 275 277 277 275 272 279 280 274 265 255 253 253 247 252 255
159 162 168 175 182 186 190 194 193 191 194 198 200 201 209 214 220 223 225 231 240 249 245 249 261 268 274 283 283 278 274 271 260 256 268 278 276 270 240 229 223 226 236 244
165 163 163 163 159 174 180 180 190 191 199 211 221 219 222 219 220 219 222 230 218 218 239 245 247 262 264 275 316 301 284 263 235 192 150 64 311 246 205 192 198 211 219 237
170 158 152 160 170 190 197 182 185 193 198 196 188 200 211 202 209 217 204 190 195 192 208 201 226 281 280 295 310 334 181 145 153 160 114 61 71 48 96 146 157 191 223 182
186 188 177 179 205 206 210 184 172 170 162 165 177 186 185 188 199 207 221 197 175 172 200 212 128 94 95 124 79 83 79 124 168 179 187 94 27 107 132 142 164 200 236 280
214 213 215 221 251 259 186 170 163 166 164 154 166 162 169 180 201 203 191 180 160 178 182 151 109 100 236 122 69 57 42 46 47 117 194 246 271 41 275 226 244 253 264 251
211 220 228 246 276 187 168 166 165 166 170 188 178 169 166 183 169 147 156 173 163 147 143 108 59 332 342 41 354 332 322 331 331 330 312 312 315 294 289 286 274 258 255 265
216 224 239 248 210 173 173 175 170 169 164 169 178 175 164 157 148 142 136 132 134 124 92 32 253 326 338 343 332 336 320 325 322 314 310 303 292 285 283 280 265 246 249 256
220 216 204 184 183 186 182 177 176 166 163 175 172 173 166 155 137 124 110 107 138 148 176 220 282 302 305 313 312 308 307 303 298 299 298 292 286 276 261 251 246 246 248 254
171 169 173 186 178 182 186 186 179 185 174 148 149 161 162 143 121 105 97 97 120 257 289 293 316 320 302 278 275 276 283 286 287 282 274 271 262 255 251 251 255 261 254 251